Location: Newark
(52.3735°N, 16.9806°E)
Time: 12:41:49
(UTC+00:00)

Nauka - Pass Details

Date: 28 September 2021
Orbit: 417 x 423 km, 51.6° (Epoch: 20 October)

Event Time Altitude Azimuth Distance (km) Brightness Sun altitude
Rises 17:26:08 0° 272° (W) 2,364 ? -8.5°
Reaches altitude 10° 17:28:14 10° 271° (W) 1,501 ? -8.8°
Maximum altitude 17:31:35 78° 186° (S) 434 ? -9.3°
Enters shadow 17:34:21 14° 100° (E) 1,258 ? -9.7°
